Time,TemperatureF,DewpointF,PressureIn,WindDirection,WindDirectionDegrees,WindSpeedMPH,WindSpeedGustMPH,Humidity,HourlyPrecipIn,Conditions,Clouds,dailyrainin,SolarRadiationWatts/m^2,SoftwareType,DateUTC
2013-08-18 00:02:00,65.0,59.0,-100.00,South,183,4.0,9.0,80,0.00,,,0.00,0.000000,,2013-08-18 05:02:00,
2013-08-18 00:42:00,64.0,59.0,-100.00,South,185,5.0,8.0,83,0.00,,,0.00,0.000000,,2013-08-18 05:42:00,
2013-08-18 00:52:00,64.0,59.0,-100.00,South,185,5.0,8.0,83,0.00,,,0.00,0.000000,,2013-08-18 05:52:00,
2013-08-18 01:01:00,64.0,59.0,-100.00,South,185,5.0,8.0,83,0.00,,,0.00,0.000000,,2013-08-18 06:01:00,
2013-08-18 01:42:00,62.0,58.0,-100.00,South,181,5.0,10.0,86,0.00,,,0.00,0.000000,,2013-08-18 06:42:00,
2013-08-18 01:52:00,62.0,58.0,-100.00,South,181,5.0,10.0,86,0.00,,,0.00,0.000000,,2013-08-18 06:52:00,
2013-08-18 02:01:00,62.0,58.0,-100.00,South,181,5.0,10.0,86,0.00,,,0.00,0.000000,,2013-08-18 07:01:00,
2013-08-18 02:42:00,62.0,58.0,-100.00,South,191,4.0,7.0,88,0.00,,,0.00,0.000000,,2013-08-18 07:42:00,
2013-08-18 02:52:00,62.0,58.0,-100.00,South,191,4.0,7.0,88,0.00,,,0.00,0.000000,,2013-08-18 07:52:00,
2013-08-18 03:01:00,62.0,58.0,-100.00,South,191,4.0,7.0,88,0.00,,,0.00,0.000000,,2013-08-18 08:01:00,
2013-08-18 03:42:00,61.0,58.0,-100.00,South,190,5.0,8.0,90,0.00,,,0.00,0.000000,,2013-08-18 08:42:00,
2013-08-18 03:52:00,61.0,58.0,-100.00,South,190,5.0,8.0,90,0.00,,,0.00,0.000000,,2013-08-18 08:52:00,
2013-08-18 04:01:00,61.0,58.0,-100.00,South,190,5.0,8.0,90,0.00,,,0.00,0.000000,,2013-08-18 09:01:00,
2013-08-18 04:43:00,60.0,57.0,-100.00,South,188,4.0,7.0,91,0.00,,,0.00,0.000000,,2013-08-18 09:43:00,
2013-08-18 04:53:00,60.0,57.0,-100.00,South,188,4.0,7.0,91,0.00,,,0.00,0.000000,,2013-08-18 09:53:00,
2013-08-18 05:03:00,60.0,57.0,-100.00,South,188,4.0,7.0,91,0.00,,,0.00,0.000000,,2013-08-18 10:03:00,
2013-08-18 05:43:00,59.0,57.0,-100.00,South,173,3.0,6.0,94,0.00,,,0.00,0.000000,,2013-08-18 10:43:00,
2013-08-18 05:52:00,59.0,57.0,-100.00,South,173,3.0,6.0,94,0.00,,,0.00,0.000000,,2013-08-18 10:52:00,
2013-08-18 06:02:00,59.0,57.0,-100.00,South,173,3.0,6.0,94,0.00,,,0.00,0.000000,,2013-08-18 11:02:00,
2013-08-18 06:42:00,60.0,57.0,-100.00,South,184,4.0,8.0,91,0.00,,,0.00,0.000000,,2013-08-18 11:42:00,
2013-08-18 06:52:00,60.0,57.0,-100.00,South,184,4.0,8.0,91,0.00,,,0.00,0.000000,,2013-08-18 11:52:00,
2013-08-18 07:01:00,60.0,57.0,-100.00,South,184,4.0,8.0,91,0.00,,,0.00,0.000000,,2013-08-18 12:01:00,
2013-08-18 07:42:00,61.0,57.0,-100.00,South,186,5.0,8.0,88,0.00,,,0.00,26.000000,,2013-08-18 12:42:00,
2013-08-18 07:52:00,61.0,57.0,-100.00,South,186,5.0,8.0,88,0.00,,,0.00,26.000000,,2013-08-18 12:52:00,
2013-08-18 08:01:00,61.0,57.0,-100.00,South,186,5.0,8.0,88,0.00,,,0.00,26.000000,,2013-08-18 13:01:00,
2013-08-18 08:42:00,63.0,57.0,-100.00,South,183,7.0,12.0,81,0.00,,,0.00,117.000000,,2013-08-18 13:42:00,
2013-08-18 08:52:00,63.0,57.0,-100.00,South,183,7.0,12.0,81,0.00,,,0.00,117.000000,,2013-08-18 13:52:00,
2013-08-18 09:01:00,63.0,57.0,-100.00,South,183,7.0,12.0,81,0.00,,,0.00,117.000000,,2013-08-18 14:01:00,
2013-08-18 09:42:00,66.0,58.0,-100.00,SSW,194,9.0,15.0,75,0.00,,,0.00,203.000000,,2013-08-18 14:42:00,
2013-08-18 09:53:00,66.0,58.0,-100.00,SSW,194,9.0,15.0,75,0.00,,,0.00,203.000000,,2013-08-18 14:53:00,
2013-08-18 10:01:00,66.0,58.0,-100.00,SSW,194,9.0,15.0,75,0.00,,,0.00,203.000000,,2013-08-18 15:01:00,
2013-08-18 10:43:00,69.0,59.0,-100.00,South,189,10.0,18.0,70,0.00,,,0.00,342.000000,,2013-08-18 15:43:00,
2013-08-18 10:54:00,69.0,59.0,-100.00,South,189,10.0,18.0,70,0.00,,,0.00,342.000000,,2013-08-18 15:54:00,
2013-08-18 11:03:00,69.0,59.0,-100.00,South,189,10.0,18.0,70,0.00,,,0.00,342.000000,,2013-08-18 16:03:00,
2013-08-18 11:42:00,74.0,60.0,-100.00,South,191,10.0,18.0,61,0.00,,,0.00,538.000000,,2013-08-18 16:42:00,
2013-08-18 11:52:00,74.0,60.0,-100.00,South,191,10.0,18.0,61,0.00,,,0.00,538.000000,,2013-08-18 16:52:00,
2013-08-18 12:02:00,74.0,60.0,-100.00,South,191,10.0,18.0,61,0.00,,,0.00,538.000000,,2013-08-18 17:02:00,
2013-08-18 12:43:00,77.0,60.0,-100.00,SSW,192,12.0,20.0,55,0.00,,,0.00,765.000000,,2013-08-18 17:43:00,
2013-08-18 12:52:00,77.0,60.0,-100.00,SSW,192,12.0,20.0,55,0.00,,,0.00,765.000000,,2013-08-18 17:52:00,
2013-08-18 13:02:00,77.0,60.0,-100.00,SSW,192,12.0,20.0,55,0.00,,,0.00,765.000000,,2013-08-18 18:02:00,
2013-08-18 13:42:00,80.0,61.0,-100.00,SSW,194,11.0,22.0,52,0.00,,,0.00,928.000000,,2013-08-18 18:42:00,
2013-08-18 13:52:00,80.0,61.0,-100.00,SSW,194,11.0,22.0,52,0.00,,,0.00,928.000000,,2013-08-18 18:52:00,
2013-08-18 14:01:00,80.0,61.0,-100.00,SSW,194,11.0,22.0,52,0.00,,,0.00,928.000000,,2013-08-18 19:01:00,
2013-08-18 14:42:00,79.0,60.0,-100.00,SSW,198,11.0,26.0,53,0.00,,,0.00,784.000000,,2013-08-18 19:42:00,
2013-08-18 14:52:00,79.0,60.0,-100.00,SSW,198,11.0,26.0,53,0.00,,,0.00,784.000000,,2013-08-18 19:52:00,
2013-08-18 15:02:00,79.0,60.0,-100.00,SSW,198,11.0,26.0,53,0.00,,,0.00,784.000000,,2013-08-18 20:02:00,
2013-08-18 15:42:00,81.0,62.0,-100.00,SSW,195,12.0,24.0,52,0.00,,,0.00,643.000000,,2013-08-18 20:42:00,
2013-08-18 15:52:00,81.0,62.0,-100.00,SSW,195,12.0,24.0,52,0.00,,,0.00,643.000000,,2013-08-18 20:52:00,
2013-08-18 16:01:00,81.0,62.0,-100.00,SSW,195,12.0,24.0,52,0.00,,,0.00,643.000000,,2013-08-18 21:01:00,
2013-08-18 16:42:00,81.0,63.0,-100.00,South,186,11.0,22.0,54,0.00,,,0.00,651.000000,,2013-08-18 21:42:00,
2013-08-18 16:53:00,81.0,63.0,-100.00,South,186,11.0,22.0,54,0.00,,,0.00,651.000000,,2013-08-18 21:53:00,
2013-08-18 17:03:00,81.0,63.0,-100.00,South,186,11.0,22.0,54,0.00,,,0.00,651.000000,,2013-08-18 22:03:00,
2013-08-18 17:42:00,79.0,62.0,-100.00,SSW,194,12.0,24.0,56,0.00,,,0.00,483.000000,,2013-08-18 22:42:00,
2013-08-18 17:52:00,79.0,62.0,-100.00,SSW,194,12.0,24.0,56,0.00,,,0.00,483.000000,,2013-08-18 22:52:00,
2013-08-18 18:02:00,79.0,62.0,-100.00,SSW,194,12.0,24.0,56,0.00,,,0.00,483.000000,,2013-08-18 23:02:00,
2013-08-18 18:42:00,78.0,62.0,-100.00,South,191,11.0,20.0,57,0.00,,,0.00,264.000000,,2013-08-18 23:42:00,
2013-08-18 18:52:00,78.0,62.0,-100.00,South,191,11.0,20.0,57,0.00,,,0.00,264.000000,,2013-08-18 23:52:00,
2013-08-18 19:02:00,78.0,62.0,-100.00,South,191,11.0,20.0,57,0.00,,,0.00,264.000000,,2013-08-19 00:02:00,
2013-08-18 19:42:00,75.0,61.0,-100.00,South,189,8.0,18.0,62,0.00,,,0.00,98.000000,,2013-08-19 00:42:00,
2013-08-18 19:52:00,75.0,61.0,-100.00,South,189,8.0,18.0,62,0.00,,,0.00,98.000000,,2013-08-19 00:52:00,
2013-08-18 20:02:00,75.0,61.0,-100.00,South,189,8.0,18.0,62,0.00,,,0.00,98.000000,,2013-08-19 01:02:00,
2013-08-18 20:06:00,74.0,61.0,-100.00,SSW,194,6.0,13.0,64,0.00,,,0.00,16.000000,,2013-08-19 01:06:00,
2013-08-18 20:42:00,74.0,61.0,-100.00,SSW,194,6.0,13.0,64,0.00,,,0.00,16.000000,,2013-08-19 01:42:00,
2013-08-18 20:52:00,74.0,61.0,-100.00,SSW,194,6.0,13.0,64,0.00,,,0.00,16.000000,,2013-08-19 01:52:00,
2013-08-18 21:42:00,72.0,61.0,-100.00,South,180,5.0,9.0,68,0.00,,,0.00,3.000000,,2013-08-19 02:42:00,
2013-08-18 21:52:00,72.0,61.0,-100.00,South,180,5.0,9.0,68,0.00,,,0.00,3.000000,,2013-08-19 02:52:00,
2013-08-18 22:01:00,72.0,61.0,-100.00,South,180,5.0,9.0,68,0.00,,,0.00,3.000000,,2013-08-19 03:01:00,
2013-08-18 22:42:00,72.0,61.0,-100.00,South,184,5.0,12.0,69,0.00,,,0.00,0.000000,,2013-08-19 03:42:00,
2013-08-18 22:53:00,72.0,61.0,-100.00,South,184,5.0,12.0,69,0.00,,,0.00,0.000000,,2013-08-19 03:53:00,
2013-08-18 23:03:00,72.0,61.0,-100.00,South,184,5.0,12.0,69,0.00,,,0.00,0.000000,,2013-08-19 04:03:00,
2013-08-18 23:42:00,71.0,61.0,-100.00,SSW,192,5.0,9.0,70,0.00,,,0.00,0.000000,,2013-08-19 04:42:00,
2013-08-18 23:53:00,71.0,61.0,-100.00,SSW,192,5.0,9.0,70,0.00,,,0.00,0.000000,,2013-08-19 04:53:00,